Location: Unspecified
(50.2656°N, 0.0000°E)
Time: 04:40:01
(UTC+00:00)

Vanguard 1 Rocket - Visible Passes

Search period start: 04 April 2026 00:00
Search period end: 14 April 2026 00:00
Orbit: 654 x 4213 km, 34.3° (Epoch: 28 March)

Date Brightness Start Highest point End Pass type
(mag) Time Alt. Az. Time Alt. Az. Time Alt. Az.
4 Apr 10.0 01:20:32 31° SSE 01:20:32 31° SSE 01:28:06 10° ESE visible
4 Apr 9.4 03:37:39 22° SW 03:44:21 33° S 03:51:37 10° SE visible
5 Apr 10.5 00:11:31 21° SE 00:11:31 21° SE 00:15:45 10° ESE visible
5 Apr 9.6 02:28:37 34° SSW 02:31:37 37° S 02:40:23 10° ESE visible
5 Apr 9.5 04:46:53 10° WSW 04:56:34 26° SSW 05:02:36 10° SSE visible
5 Apr 10.9 23:02:26 10° ESE 23:02:26 10° ESE 23:02:28 10° ESE visible
6 Apr 9.9 01:19:31 36° SSE 01:19:31 36° SSE 01:28:43 10° ESE visible
6 Apr 9.5 03:36:37 21° WSW 03:44:22 34° SSW 03:51:59 10° SE visible
6 Apr11.421:53:17E21:53:17E21:23:46Svisible
7 Apr 10.3 00:10:21 27° SE 00:10:21 27° SE 00:16:30 10° ESE visible
7 Apr 9.6 02:27:26 34° SSW 02:31:35 39° S 02:40:50 10° ESE visible
7 Apr 9.6 04:46:35 10° WSW 04:56:27 25° SSW 05:02:42 10° SSE visible
7 Apr 10.8 22:32:16 10° SSW 23:01:06 16° ESE 23:03:32 10° ESE visible
8 Apr 9.9 01:18:10 40° S 01:18:14 40° S 01:29:14 10° ESE visible
8 Apr 9.6 03:35:14 19° WSW 03:44:17 34° SSW 03:52:15 10° SE visible
8 Apr 11.2 21:20:18 10° S 21:51:44 - E 21:27:35 18° SSE visible
8 Apr 10.2 23:44:11 10° SW 00:08:46 34° SE 00:17:05 10° ESE visible
9 Apr 9.7 02:25:50 32° SW 02:31:29 40° S 02:41:12 10° ESE visible
9 Apr 9.7 04:46:21 10° W 04:56:14 23° SW 05:02:37 10° SSE visible
9 Apr 11.2 20:11:31 10° SSE 20:21:20 15° SE 20:21:20 15° SE visible
9 Apr 10.6 22:29:58 10° SSW 22:59:12 23° ESE 23:04:16 10° E visible
10 Apr 9.9 01:16:14 42° SSW 01:18:03 43° S 01:29:38 10° ESE visible
10 Apr 9.7 03:33:15 16° WSW 03:44:07 33° SSW 03:52:25 10° SE visible
10 Apr 10.9 21:17:13 10° SSW 21:49:19 12° E 21:50:27 10° E visible
10 Apr 10.1 23:42:39 10° SW 00:06:18 41° SSE 00:17:32 10° ESE visible
11 Apr 9.7 02:23:17 28° WSW 02:31:19 41° SSW 02:41:28 10° SE visible
11 Apr 9.9 04:46:13 10° W 04:55:54 21° SW 05:02:21 10° S visible
11 Apr 11.0 20:06:42 10° S 20:21:40 19° SE 20:28:06 17° ESE visible
11 Apr 10.4 22:28:03 10° SW 22:55:39 32° SE 23:04:48 10° E visible
12 Apr 9.9 00:57:07 10° WSW 01:17:48 45° S 01:29:57 10° ESE visible
12 Apr 9.8 03:29:20 10° W 03:43:50 32° SSW 03:52:28 10° SSE visible
12 Apr 11.3 19:01:48 10° SE 19:07:59 11° SE 19:13:59 10° ESE visible
12 Apr 10.7 21:14:45 10° SSW 21:35:06 32° SSE 21:51:13 10° E visible
12 Apr 10.1 23:41:21 10° SW 00:03:40 45° S 00:17:53 10° ESE visible
13 Apr 9.8 02:12:38 10° WSW 02:31:03 41° SSW 02:41:39 10° SE visible
13 Apr 11.0 20:03:16 10° S 20:20:46 24° SE 20:36:16 10° E visible
13 Apr 10.4 22:26:27 10° SW 22:49:05 42° SSE 23:05:11 10° E visible
